Location: Unspecified
(43.4354°N, 0.0000°E)
Time: 04:34:31
(UTC+00:00)

S-56A Canister/Altair - Pass Details

Date: 27 June 2019
Orbit: 632 x 2500 km, 38.9° (Epoch: 21 July)

Event Time Altitude Azimuth Distance (km) Brightness Sun altitude
Rises 10:44:04 0° 180° (S) 6,115 12.4 64.1°
Reaches altitude 10° 10:51:55 10° 156° (SSE) 4,881 12.1 65.1°
Maximum altitude 10:56:28 12° 136° (SE) 4,474 12.0 65.7°
Drops below altitude 10° 11:00:40 10° 116° (ESE) 4,430 11.9 66.1°
Sets 11:06:46 0° 90° (E) 4,997 11.9 66.8°
